Ordabasy Taykenov

Scout - Kairat
3 Dec 2028
Sunday
Process

Personality

Adaptability (1) Ambition (10) Controversy (19) Loyalty (7) Pressure (13) Professionalism (17) Sportsmanship (6) Temperament (14)

Profile

Coaching Style Democratic
License National A
Determination 7
Man Management 7
Motivating 9
Discipline 9
Job Satisfaction
100%
Fatigue
0%
Role Scout
Wage 38.2K p/w
Contract 14.03.2030

Performance

Behaviour Good
Training Effectiveness
34%
Player Development
20%
Injury Prevention
55%
Tactical Implementation
45%

Recent Events

Assessed a player now
Attended a recruitment meeting now
Recommended a transfer target now
Recommended a transfer target now
Recommended a transfer target now
Recommended a transfer target now
Recommended a transfer target now
Recommended a transfer target now

Currently Monitoring

138
Player Club Status Ability Confidence Watched Last Observed Latest Vote
Noah Markmann Esbjerg Active 123 / 121 40% 5 29.11.2028 -
Alexandr Derzhinskiy Slavia Mozyr Active 95 / 108 40% 2 29.11.2028 -
Aytor Herrera Mineros de Guayana Active 90 / 104 40% 1 29.11.2028 -
Azizbek To'lqinbekov Bunyodkor Active 107 / 119 40% 4 28.11.2028 -
Gideon Manaseh Ikorodu City Active 94 / 87 40% 3 28.11.2028 -
Artem Nosachev Spartak Moscow Active 85 / 80 40% 3 28.11.2028 -
Riquelme Thompson-Jones Accrington Stanley Active 123 / 116 40% 2 27.11.2028 -
Jack Shorrock Port Vale Active 104 / 100 40% 1 27.11.2028 -
Santino Baldassarri Orenburg Active 86 / 94 40% 1 27.11.2028 -
Muminhon Bahodirxonov Neftchi Active 98 / 101 40% 2 24.11.2028 -
Vadim Tskhadiashvili Dinamo Stavropol Active 71 / 78 40% 2 24.11.2028 -
Mateo Caballero Defensor Sporting Active 92 / 106 40% 3 23.11.2028 -
Zakhar Yevdachev Chertanovo Active 73 / 61 40% 1 23.11.2028 -
Maxim Radchenko Rostov Active 91 / 85 40% 5 19.11.2028 -
Yuri Lipatov Rostov Active 88 / 101 40% 1 19.11.2028 -
Aaron Branca Artigas Active 77 / 69 40% 3 18.11.2028 -
Mauro Matorras Central Norte Active 92 / 84 40% 2 18.11.2028 -
Felipe Pujol Vélez Active 119 / 118 40% 1 17.11.2028 -
Maxim Modulev Niva Active 77 / 86 40% 2 13.11.2028 -
Timur Nikolov Alania Active 68 / 67 40% 1 13.11.2028 -
Alexandr Yevstratov Rodina M Active 80 / 61 40% 1 13.11.2028 -
Máximo Munarriz San Telmo Active 105 / 115 40% 6 12.11.2028 -
Malte Hallin GIF Sundsvall Active 87 / 110 40% 1 12.11.2028 -
Anderson Acevedo Bogota Active 92 / 89 40% 1 12.11.2028 -
Estanislao López Colón Active 82 / 98 40% 3 10.11.2028 -
Stanislav Bukatov Salyut Active 92 / 96 40% 2 09.11.2028 -
Tiago Gordillo San Miguel Active 95 / 111 40% 2 09.11.2028 -
Denis Grigorjev Arsenal Tula Active 97 / 99 40% 3 08.11.2028 -
Mateo Elisseche Maipú Active 77 / 70 40% 1 07.11.2028 -
Nikita Khvat Amkar Active 83 / 106 40% 3 06.11.2028 -
Alexandr Lubnin Zenit Penza Active 88 / 86 40% 1 06.11.2028 -
Alejandro Tapia Central Norte Active 78 / 102 40% 1 03.11.2028 -
Andrey Ivlev Nizhniy Novgorod Active 110 / 119 40% 2 31.10.2028 -
Björn Hedlöf Helsingborg Active 94 / 86 40% 1 31.10.2028 -
Ivan Borges Defensores Active 88 / 107 40% 1 28.10.2028 -
Mateo Faure BATE Active 84 / 96 40% 1 22.10.2028 -
Makar Vysochenko Spartak Moscow Active 100 / 86 40% 1 20.10.2028 -
Máximo Magnoli Ferro Carril Oeste Active 87 / 87 40% 1 17.10.2028 -
Artem Zmeev Dinamo Moscow Active 91 / 112 40% 1 15.10.2028 -
Lucas Camejo River Plate Active 97 / 110 40% 1 04.10.2028 -
Damir Bagautdinov Rubin Active 85 / 102 40% 1 03.10.2028 -
Matías Satas Grimsby Town Active 101 / 108 40% 1 02.10.2028 -
Victor Mudrac Ordabasy Report Ready 87 / 86 72% 1 28.08.2028 -
Luis Guerra Tobol Report Ready 111 / 98 72% 1 14.08.2028 -
Elliot Bonds Fleetwood Town Active 107 / 116 40% 1 13.06.2028 -
Đorđe Pantelić Spartak Kostroma Active 102 / 91 40% 1 13.06.2028 -
Facundo Lescano Salernitana Active 112 / 116 40% 4 12.06.2028 -
Alexandr Rudenko Lokomotiv Moscow Active 132 / 115 40% 6 12.06.2028 -
Václav Sejk Slovacko Active 128 / 123 40% 1 12.06.2028 -
Stefan Kovač Baltika Active 110 / 111 40% 3 11.06.2028 -
Nikita Kakkoev Nizhniy Novgorod Active 130 / 102 40% 3 11.06.2028 -
Emanuele Scipioni Monopoli Active 113 / 115 40% 2 11.06.2028 -
Matthew Litherland Harrogate Town Active 118 / 136 40% 1 11.06.2028 -
Razhab Magomedov Dinamo Makhachkala Active 117 / 94 40% 1 11.06.2028 -
Martin Sekulić Ural Active 106 / 100 40% 9 10.06.2028 -
Layton Stewart Barnet Active 107 / 112 40% 3 10.06.2028 -
Luca Vido Union Brescia Active 116 / 98 40% 8 09.06.2028 -
Alexandr Kovalenko Sochi Active 110 / 105 40% 4 08.06.2028 -
Sergey Babkin Lokomotiv Moscow Active 116 / 116 40% 2 08.06.2028 -
Jack Shepherd Swindon Town Active 106 / 96 40% 1 08.06.2028 -
Ismail Achik Salernitana Active 121 / 111 40% 3 06.06.2028 -
Marcus Browne AFC Wimbledon Active 112 / 100 40% 2 05.06.2028 -
Matty Stevens AFC Wimbledon Active 110 / 92 40% 1 05.06.2028 -
Rui Costa Port Vale Active 117 / 98 40% 4 04.06.2028 -
Darko Todorović Fakel Active 111 / 120 40% 3 03.06.2028 -
Ignacio Saavedra Sochi Active 115 / 139 40% 1 03.06.2028 -
Dmitry Vasiljev Orenburg Active 125 / 133 40% 1 03.06.2028 -
Edgardo Fariña Nizhniy Novgorod Active 112 / 105 40% 2 27.05.2028 -
Bradley Ibrahim Plymouth Argyle Active 118 / 102 40% 2 27.05.2028 -
Chinedu Geoffrey Krylya Sovetov Active 119 / 134 40% 3 26.05.2028 -
Robert Mejía Orenburg Active 125 / 107 40% 1 26.05.2028 -
Nicola Dalmonte Trento Active 115 / 109 40% 1 26.05.2028 -
Ashley Fletcher Blackpool Active 106 / 117 40% 1 24.05.2028 -
Greg Docherty Barrow AFC Active 119 / 101 40% 5 21.05.2028 -
Ethan Erhahon Cheltenham Town Active 123 / 117 40% 4 21.05.2028 -
Gamid Agalarov Orenburg Active 106 / 120 40% 3 20.05.2028 -
Ben Whiteman Harrogate Town Active 126 / 104 40% 5 20.05.2028 -
Ilja Agapov Ufa Active 128 / 123 40% 2 20.05.2028 -
Temirkan Sundukov Dinamo Makhachkala Active 117 / 125 40% 2 19.05.2028 -
Ryan Wintle Milton Keynes Dons Active 113 / 130 40% 2 19.05.2028 -
Bojan Roganović Torpedo Moscow Active 121 / 123 40% 1 19.05.2028 -
Herculano Nabian Empoli Active 120 / 102 40% 2 15.05.2028 -
Kyrell Lisbie Peterborough United Active 112 / 100 40% 2 12.05.2028 -
Ettore Gliozzi Mantova Active 116 / 101 40% 3 11.05.2028 -
Andrés Alarcón Dinamo Makhachkala Active 122 / 107 40% 2 11.05.2028 -
Mikhail Ignatov Sochi Active 123 / 131 40% 1 11.05.2028 -
Emanuele Pecorino Catanzaro Active 113 / 115 40% 1 11.05.2028 -
Vyacheslav Grulev Nizhniy Novgorod Active 108 / 119 40% 4 09.05.2028 -
Giuseppe Panico Foggia Active 121 / 133 40% 2 09.05.2028 -
François Kamano Sochi Active 110 / 129 40% 4 07.05.2028 -
Idrissa Guèye Virtus Entella Active 124 / 108 40% 2 06.05.2028 -
Stanislav Magkeev Fakel Active 113 / 119 40% 1 04.05.2028 -
Vladislav Sarveli Nizhniy Novgorod Active 119 / 104 40% 3 01.05.2028 -
Alexandre Jesus Orenburg Active 101 / 112 40% 3 01.05.2028 -
Kevin Martins Monza Active 120 / 107 40% 1 01.05.2028 -
Nathan Gassama Baltika Active 129 / 115 40% 1 27.04.2028 -
Giacomo Zecca Torres Active 111 / 115 40% 2 24.04.2028 -
Gerzino Nyamsi Lokomotiv Moscow Active 124 / 129 40% 1 19.04.2028 -
Alexandr Soldatenkov Sochi Active 129 / 106 40% 1 18.04.2028 -
Matija Popović Fakel Active 114 / 118 40% 1 14.04.2028 -
Iker Pozo Rodina Active 120 / 102 40% 1 12.04.2028 -
Leo Goglichidze Rodina Active 121 / 103 40% 1 09.04.2028 -
Eldar Ćivić Baltika Active 121 / 128 40% 1 08.04.2028 -
Ichem Ferrah Livorno Active 115 / 122 40% 2 05.04.2028 -
Jake Evans Crewe Alexandra Active 119 / 139 40% 1 01.04.2028 -
Alessandro Seghetti Campobasso Active 124 / 119 40% 1 23.03.2028 -
Dmitry Tsypchenko Nizhniy Novgorod Active 112 / 120 40% 1 16.03.2028 -
Gennaro Tutino Sampdoria Active 125 / 112 40% 2 14.03.2028 -
Ivan Sergeev Dinamo Moscow Active 132 / 134 40% 3 10.03.2028 -
Igor Tyjon Barrow AFC Active 108 / 109 40% 1 09.03.2028 -
Daniel Sosah Aktobe Active 116 / 113 40% 2 03.03.2028 -
Mohamed Konaté Akhmat Grozny Active 111 / 95 40% 4 02.03.2028 -
Maksim Samorodov Akhmat Grozny Active 127 / 110 40% 1 25.02.2028 -
Guillaume Furrer Lecco Active 103 / 100 40% 3 16.02.2028 -
Jaime Báez Trapani Active 109 / 129 40% 1 14.02.2028 -
Stefan Lončar Akron Active 121 / 135 40% 1 07.02.2028 -
Temirlan Erlanov Aktobe Active 103 / 99 72% 1 25.01.2028 Approve
Marvin Çuni Rubin Active 116 / 106 40% 2 22.01.2028 -
Alan Marinelli Sparta Prague Active 120 / 113 40% 1 19.01.2028 -
Juan Camilo Córdoba Deportivo Pereira Active 80 / 75 40% 1 23.12.2027 -
Yegor Vedernikov Irkutsk Active 83 / 101 40% 1 23.12.2027 -
Derik Lacerda Kawasaki Frontale Active 132 / 120 40% 2 21.12.2027 -
Kirill Volkov Volgar Active 95 / 112 40% 2 19.12.2027 -
Victor Hernandez Santa Fe Active 124 / 103 40% 1 19.12.2027 -
Georgy Melkadze Akhmat Grozny Active 110 / 95 40% 1 16.12.2027 -
Bobur Abdiholiqov Nasaf Active 113 / 109 40% 1 16.12.2027 -
Matvey Bardachev Zenit Active 120 / 132 40% 1 15.12.2027 -
Alexandr Burkov Rodina M Active 82 / 82 40% 1 15.12.2027 -
Flamarion Pakhtakor Active 119 / 121 40% 2 11.12.2027 -
Artem Luttsev Saturn Active 86 / 85 40% 1 07.12.2027 -
Diego Valencia Astana Active 115 / 125 40% 1 06.12.2027 -
Moussa Maréga Shakhter Active 118 / 103 69% 1 15.06.2027 Approve
Askhat Baltabekov Zhetysu Active 96 / 103 69% 1 15.02.2027 Approve
Arman Keńesov Aktobe Lost 97 / 93 69% 1 27.01.2027 -
Giorgi Zaria Aktobe Rejected 116 / 114 69% 1 25.01.2027 Reject
Nemanja Cavnić Tobol Active 104 / 110 69% 1 07.09.2026 Approve
El'khan Astanov Ordabasy Active 108 / 105 65% 1 17.08.2026 Approve
Ian Vorogovskiy Astana Active 118 / 101 65% 1 03.08.2026 Approve